AUA237 LOWW-EDDB

Flight info

Callsign AUA237
Flight time 0h 50m
Altitude 30000
Route LANUX DCT VLM DCT BEFRE T204 NUKRO NUKRO1R
Aircraft A320/M-SDE3FGHIRWY/LB1

Departure

Time 2026-05-06 17:39
Airport Vienna International Airport (LOWW)

Arrival

Time 2026-05-06 18:29
Airport Berlin Brandenburg Airport (EDDB)
Time Latitude Longitude Altitude Speed Heading
2026-05-06 17:14 48.11862 16.56876 624 ft 0 kts 206°
2026-05-06 17:30 48.11882 16.56890 616 ft 4 kts 200°
2026-05-06 17:30 48.11908 16.56901 611 ft 4 kts 184°
2026-05-06 17:30 48.11932 16.56896 623 ft 4 kts 138°
2026-05-06 17:30 48.11940 16.56882 623 ft 1 kts 116°
2026-05-06 17:31 48.11940 16.56880 623 ft 0 kts 116°
2026-05-06 17:34 48.11938 16.56886 623 ft 2 kts 116°
2026-05-06 17:34 48.11927 16.56922 618 ft 6 kts 115°
2026-05-06 17:34 48.11903 16.57000 619 ft 11 kts 114°
2026-05-06 17:35 48.11869 16.57122 616 ft 15 kts 112°
2026-05-06 17:35 48.11842 16.57269 612 ft 11 kts 93°
2026-05-06 17:35 48.11903 16.57311 619 ft 12 kts 343°
2026-05-06 17:36 48.12014 16.57444 608 ft 13 kts 79°
2026-05-06 17:36 48.11999 16.57577 612 ft 3 kts 104°
2026-05-06 17:36 48.11999 16.57578 612 ft 0 kts 104°
2026-05-06 17:37 48.11995 16.57603 608 ft 6 kts 103°
2026-05-06 17:38 48.11980 16.57703 608 ft 13 kts 103°
2026-05-06 17:38 48.11928 16.57837 614 ft 13 kts 152°
2026-05-06 17:38 48.11728 16.57929 615 ft 63 kts 165°
2026-05-06 17:38 48.11088 16.58200 617 ft 125 kts 164°
2026-05-06 17:39 48.10134 16.58609 911 ft 145 kts 166°
2026-05-06 17:39 48.09180 16.59026 1593 ft 145 kts 169°
2026-05-06 17:39 48.08170 16.59449 2190 ft 157 kts 170°
2026-05-06 17:39 48.07057 16.59904 2559 ft 179 kts 170°
2026-05-06 17:40 48.05871 16.60730 3160 ft 197 kts 150°
2026-05-06 17:40 48.04933 16.62322 3922 ft 216 kts 127°
2026-05-06 17:40 48.04510 16.64570 4640 ft 238 kts 97°
2026-05-06 17:40 48.04882 16.67044 5357 ft 254 kts 64°
2026-05-06 17:41 48.06056 16.69041 6158 ft 261 kts 40°
2026-05-06 17:41 48.07545 16.70800 6556 ft 285 kts 36°
2026-05-06 17:41 48.09212 16.72624 7080 ft 304 kts 36°
2026-05-06 17:41 48.10958 16.74492 7894 ft 310 kts 35°
2026-05-06 17:42 48.12728 16.76349 8801 ft 313 kts 31°
2026-05-06 17:42 48.14708 16.77730 9674 ft 316 kts 15°
2026-05-06 17:42 48.16878 16.78408 10314 ft 325 kts
2026-05-06 17:42 48.19200 16.78280 10595 ft 344 kts 347°
2026-05-06 17:43 48.21634 16.77620 10885 ft 365 kts 346°
2026-05-06 17:43 48.24159 16.76932 11516 ft 373 kts 346°
2026-05-06 17:43 48.26734 16.76227 12254 ft 377 kts 345°
2026-05-06 17:43 48.29157 16.74913 12968 ft 376 kts 327°
2026-05-06 17:44 48.31207 16.72527 13646 ft 373 kts 308°
2026-05-06 17:44 48.32864 16.69464 14303 ft 375 kts 304°
2026-05-06 17:44 48.34462 16.66419 14990 ft 377 kts 304°
2026-05-06 17:44 48.36094 16.63313 15679 ft 380 kts 304°
2026-05-06 17:45 48.37741 16.60180 16382 ft 382 kts 304°
2026-05-06 17:45 48.39398 16.57031 17075 ft 385 kts 304°
2026-05-06 17:45 48.41064 16.53863 17799 ft 387 kts 303°
2026-05-06 17:45 48.42741 16.50680 18441 ft 389 kts 303°
2026-05-06 17:46 48.44426 16.47484 19035 ft 392 kts 303°
2026-05-06 17:46 48.46129 16.44249 19626 ft 395 kts 303°
2026-05-06 17:46 48.47835 16.41000 20204 ft 398 kts 303°
2026-05-06 17:46 48.49559 16.37710 20785 ft 400 kts 303°
2026-05-06 17:47 48.51289 16.34398 21336 ft 403 kts 303°
2026-05-06 17:47 48.53030 16.31060 21892 ft 406 kts 303°
2026-05-06 17:47 48.54788 16.27703 22411 ft 410 kts 305°
2026-05-06 17:47 48.56903 16.24739 22911 ft 423 kts 321°
2026-05-06 17:48 48.58625 16.23303 23257 ft 432 kts 331°
2026-05-06 17:48 48.61408 16.21523 23611 ft 435 kts 332°
2026-05-06 17:48 48.64219 16.19781 23707 ft 436 kts 333°
2026-05-06 17:48 48.67029 16.18065 23719 ft 435 kts 333°
2026-05-06 17:49 48.69839 16.16352 23717 ft 435 kts 333°
2026-05-06 17:49 48.72645 16.14631 23719 ft 435 kts 333°
2026-05-06 17:49 48.75441 16.12902 23719 ft 435 kts 333°
2026-05-06 17:49 48.78240 16.11159 23718 ft 435 kts 332°
2026-05-06 17:50 48.81037 16.09408 23719 ft 435 kts 332°
2026-05-06 17:50 48.83834 16.07658 23726 ft 435 kts 332°
2026-05-06 17:50 48.86632 16.05907 23725 ft 435 kts 332°
2026-05-06 17:50 48.89430 16.04147 23729 ft 435 kts 332°
2026-05-06 17:51 48.92229 16.02388 23732 ft 435 kts 332°
2026-05-06 17:51 48.95028 16.00627 23736 ft 435 kts 332°
2026-05-06 17:51 48.97832 15.98861 23751 ft 437 kts 332°
2026-05-06 17:51 49.00653 15.97082 23745 ft 438 kts 332°
2026-05-06 17:52 49.03465 15.95309 23749 ft 439 kts 332°
2026-05-06 17:52 49.06292 15.93526 23715 ft 439 kts 332°
2026-05-06 17:52 49.09112 15.91743 23718 ft 439 kts 332°
2026-05-06 17:52 49.11933 15.89957 23709 ft 439 kts 332°
2026-05-06 17:53 49.14755 15.88168 23718 ft 439 kts 332°
2026-05-06 17:53 49.17538 15.86401 23710 ft 439 kts 332°
2026-05-06 17:53 49.20364 15.84602 23713 ft 439 kts 332°
2026-05-06 17:53 49.23181 15.82808 23780 ft 441 kts 332°
2026-05-06 17:54 49.26028 15.80995 24237 ft 443 kts 332°
2026-05-06 17:54 49.28880 15.79177 24668 ft 445 kts 332°
2026-05-06 17:54 49.31745 15.77346 25077 ft 447 kts 332°
2026-05-06 17:54 49.34620 15.75499 25522 ft 449 kts 332°
2026-05-06 17:55 49.37518 15.73635 25886 ft 452 kts 331°
2026-05-06 17:55 49.40426 15.71769 26268 ft 454 kts 331°
2026-05-06 17:55 49.43355 15.69896 26639 ft 456 kts 331°
2026-05-06 17:55 49.46291 15.68018 27013 ft 458 kts 331°
2026-05-06 17:56 49.49238 15.66127 27368 ft 460 kts 331°
2026-05-06 17:56 49.52195 15.64224 27720 ft 462 kts 331°
2026-05-06 17:56 49.55155 15.62311 28065 ft 463 kts 331°
2026-05-06 17:56 49.58101 15.60409 28385 ft 465 kts 331°
2026-05-06 17:57 49.61090 15.58475 28705 ft 467 kts 331°
2026-05-06 17:57 49.64124 15.56508 29013 ft 469 kts 331°
2026-05-06 17:57 49.67136 15.54556 29304 ft 470 kts 331°
2026-05-06 17:57 49.70120 15.52621 29588 ft 472 kts 330°
2026-05-06 17:58 49.73147 15.50651 29734 ft 470 kts 331°
2026-05-06 17:58 49.76147 15.48703 29735 ft 464 kts 331°
2026-05-06 17:58 49.82084 15.44831 29736 ft 462 kts 331°
2026-05-06 17:59 49.87989 15.40956 29740 ft 461 kts 331°
2026-05-06 17:59 49.93898 15.37079 29745 ft 461 kts 331°
2026-05-06 18:00 49.99807 15.33196 29746 ft 461 kts 331°
2026-05-06 18:00 50.05710 15.29303 29746 ft 461 kts 331°
2026-05-06 18:01 50.11617 15.25396 29763 ft 461 kts 332°
2026-05-06 18:01 50.17521 15.21481 29744 ft 461 kts 332°
2026-05-06 18:02 50.23387 15.17567 29741 ft 462 kts 332°
2026-05-06 18:02 50.29296 15.13630 29742 ft 462 kts 332°
2026-05-06 18:03 50.35208 15.09686 29752 ft 462 kts 332°
2026-05-06 18:03 50.41122 15.05727 29748 ft 462 kts 332°
2026-05-06 18:04 50.47031 15.01746 29750 ft 462 kts 332°
2026-05-06 18:04 50.52954 14.97750 29770 ft 463 kts 332°
2026-05-06 18:05 50.58876 14.93745 29759 ft 463 kts 332°
2026-05-06 18:05 50.64802 14.89728 29756 ft 464 kts 332°
2026-05-06 18:06 50.70745 14.85695 29739 ft 465 kts 332°
2026-05-06 18:06 50.76695 14.81636 29738 ft 466 kts 332°
2026-05-06 18:07 50.82654 14.77569 29743 ft 467 kts 332°
2026-05-06 18:07 50.88616 14.73477 29753 ft 467 kts 331°
2026-05-06 18:08 50.94511 14.69321 29778 ft 462 kts 324°
2026-05-06 18:08 50.99726 14.63561 29773 ft 455 kts 318°
2026-05-06 18:09 51.04859 14.57661 29764 ft 455 kts 318°
2026-05-06 18:09 51.10003 14.51775 29768 ft 455 kts 318°
2026-05-06 18:10 51.15170 14.45893 29435 ft 457 kts 319°
2026-05-06 18:10 51.17732 14.42977 29148 ft 458 kts 319°
2026-05-06 18:10 51.20328 14.40017 28888 ft 459 kts 319°
2026-05-06 18:11 51.22925 14.37052 28649 ft 459 kts 319°
2026-05-06 18:11 51.25511 14.34087 28113 ft 456 kts 319°
2026-05-06 18:11 51.28075 14.31143 27338 ft 452 kts 319°
2026-05-06 18:11 51.30621 14.28216 26594 ft 448 kts 319°
2026-05-06 18:12 51.33138 14.25320 25863 ft 445 kts 320°
2026-05-06 18:12 51.35641 14.22434 25142 ft 442 kts 320°
2026-05-06 18:12 51.38128 14.19562 24430 ft 439 kts 320°
2026-05-06 18:12 51.40599 14.16702 23728 ft 437 kts 320°
2026-05-06 18:13 51.43059 14.13854 22988 ft 435 kts 320°
2026-05-06 18:13 51.45496 14.11029 22290 ft 431 kts 320°
2026-05-06 18:13 51.47915 14.08220 21649 ft 426 kts 320°
2026-05-06 18:13 51.50310 14.05439 21042 ft 422 kts 320°
2026-05-06 18:14 51.52668 14.02696 20443 ft 418 kts 320°
2026-05-06 18:14 51.55014 13.99961 19944 ft 414 kts 320°
2026-05-06 18:14 51.57339 13.97244 19763 ft 414 kts 320°
2026-05-06 18:14 51.59666 13.94519 19794 ft 414 kts 320°
2026-05-06 18:15 51.61999 13.91784 19140 ft 412 kts 320°
2026-05-06 18:15 51.64326 13.89055 17633 ft 416 kts 320°
2026-05-06 18:15 51.66665 13.86311 16899 ft 412 kts 320°
2026-05-06 18:15 51.68955 13.83626 16579 ft 401 kts 320°
2026-05-06 18:16 51.71192 13.80997 16027 ft 397 kts 320°
2026-05-06 18:16 51.73410 13.78383 15468 ft 393 kts 320°
2026-05-06 18:16 51.75583 13.75816 14901 ft 390 kts 320°
2026-05-06 18:16 51.77761 13.73239 14342 ft 387 kts 321°
2026-05-06 18:17 51.79923 13.70679 13779 ft 384 kts 321°
2026-05-06 18:17 51.82101 13.68098 13125 ft 382 kts 321°
2026-05-06 18:17 51.84201 13.65616 12531 ft 377 kts 321°
2026-05-06 18:17 51.86309 13.63123 11933 ft 373 kts 321°
2026-05-06 18:18 51.88392 13.60651 11335 ft 369 kts 321°
2026-05-06 18:18 51.90455 13.58192 10725 ft 366 kts 321°
2026-05-06 18:18 51.92476 13.55788 10470 ft 352 kts 321°
2026-05-06 18:18 51.94409 13.53495 10309 ft 337 kts 321°
2026-05-06 18:19 51.96274 13.51279 10017 ft 328 kts 321°
2026-05-06 18:19 51.98091 13.49115 9733 ft 320 kts 320°
2026-05-06 18:19 51.99864 13.46999 9425 ft 313 kts 320°
2026-05-06 18:19 52.01595 13.44924 9105 ft 303 kts 320°
2026-05-06 18:20 52.03232 13.42963 8799 ft 284 kts 320°
2026-05-06 18:20 52.04775 13.41113 8487 ft 268 kts 320°
2026-05-06 18:20 52.06232 13.39362 8181 ft 253 kts 320°
2026-05-06 18:20 52.07611 13.37706 7869 ft 240 kts 320°
2026-05-06 18:21 52.08934 13.36113 7591 ft 236 kts 320°
2026-05-06 18:21 52.10251 13.34525 7253 ft 235 kts 320°
2026-05-06 18:21 52.11565 13.32939 6928 ft 236 kts 320°
2026-05-06 18:21 52.12883 13.31346 6578 ft 236 kts 320°
2026-05-06 18:22 52.14203 13.29753 6234 ft 234 kts 321°
2026-05-06 18:22 52.15483 13.28212 5865 ft 225 kts 321°
2026-05-06 18:22 52.16729 13.26708 5477 ft 220 kts 321°
2026-05-06 18:22 52.17938 13.25246 5100 ft 214 kts 321°
2026-05-06 18:23 52.19124 13.23813 4720 ft 210 kts 321°
2026-05-06 18:23 52.20284 13.22406 4337 ft 206 kts 321°
2026-05-06 18:23 52.21425 13.21021 3958 ft 202 kts 322°
2026-05-06 18:23 52.22532 13.19677 3621 ft 196 kts 322°
2026-05-06 18:24 52.23699 13.18589 3237 ft 197 kts 340°
2026-05-06 18:24 52.25034 13.18213 3000 ft 191 kts
2026-05-06 18:24 52.26324 13.18595 2993 ft 188 kts 20°
2026-05-06 18:24 52.27457 13.19626 3000 ft 184 kts 40°
2026-05-06 18:25 52.28300 13.21141 2997 ft 180 kts 58°
2026-05-06 18:25 52.28823 13.22980 3003 ft 178 kts 69°
2026-05-06 18:25 52.29279 13.24866 2956 ft 178 kts 68°
2026-05-06 18:25 52.29731 13.26739 2784 ft 176 kts 68°
2026-05-06 18:26 52.30169 13.28562 2568 ft 170 kts 69°
2026-05-06 18:26 52.30593 13.30329 2354 ft 164 kts 69°
2026-05-06 18:26 52.31007 13.32052 2130 ft 162 kts 68°
2026-05-06 18:26 52.31418 13.33769 1910 ft 161 kts 68°
2026-05-06 18:27 52.31815 13.35423 1690 ft 152 kts 68°
2026-05-06 18:27 52.32181 13.36955 1509 ft 137 kts 68°
2026-05-06 18:27 52.32517 13.38359 1318 ft 131 kts 68°
2026-05-06 18:27 52.32845 13.39731 1131 ft 127 kts 68°
2026-05-06 18:28 52.33166 13.41078 961 ft 127 kts 68°
2026-05-06 18:28 52.33483 13.42430 801 ft 128 kts 68°
2026-05-06 18:28 52.33804 13.43800 600 ft 129 kts 68°
2026-05-06 18:28 52.34126 13.45149 450 ft 126 kts 65°
2026-05-06 18:29 52.34453 13.46496 278 ft 126 kts 65°
2026-05-06 18:29 52.34772 13.47818 157 ft 119 kts 67°
2026-05-06 18:29 52.35020 13.48849 154 ft 73 kts 69°
2026-05-06 18:29 52.35144 13.49371 154 ft 34 kts 68°
2026-05-06 18:30 52.35226 13.49712 154 ft 31 kts 69°
2026-05-06 18:30 52.35341 13.49944 154 ft 23 kts 39°
2026-05-06 18:30 52.35441 13.50085 154 ft 18 kts 41°
2026-05-06 18:30 52.35515 13.50183 154 ft 14 kts 38°
2026-05-06 18:31 52.35595 13.50293 154 ft 16 kts 53°
2026-05-06 18:31 52.35640 13.50473 155 ft 18 kts 70°
2026-05-06 18:31 52.35672 13.50606 155 ft 0 kts 68°
2026-05-06 18:32 52.35673 13.50611 155 ft 3 kts 68°
2026-05-06 18:32 52.35685 13.50658 155 ft 10 kts 63°
2026-05-06 18:32 52.35757 13.50674 155 ft 13 kts 341°
2026-05-06 18:32 52.35853 13.50622 155 ft 16 kts 342°
2026-05-06 18:33 52.35967 13.50544 155 ft 19 kts 338°
2026-05-06 18:33 52.36096 13.50462 155 ft 21 kts 339°
2026-05-06 18:33 52.36209 13.50391 156 ft 5 kts 339°
2026-05-06 18:35 52.36212 13.50389 156 ft 3 kts 339°
2026-05-06 18:35 52.36267 13.50380 155 ft 11 kts 20°
2026-05-06 18:36 52.36341 13.50438 155 ft 13 kts 21°
2026-05-06 18:36 52.36426 13.50413 155 ft 10 kts 354°
2026-05-06 18:36 52.36457 13.50496 155 ft 10 kts 69°
2026-05-06 18:36 52.36467 13.50539 155 ft 0 kts 69°